Starlink 30241

operational
NORAD ID: 57298 Int'l Des: 2023-096 Owner: SPXS Country: US Constellation: starlink
LEOCIRCULAR

Starlink 30241について

説明を読み込み中...

リアルタイム位置

3D地球を読み込み中...

次回通過

高度履歴

Altitude vs Time

uPlot chart will show altitude changes over time

軌道要素

1 57298U 23096J 25308.83336806 .00099129 00000-0 27374-2 0 9991
2 57298 42.9898 152.6190 0028631 254.8582 181.2676 15.35612181 5909
Epoch: Nov 4, 2025 • Age: 5 hours

現在のステータス

高度 449.8 km
速度 7.65 km/s
衛星直下点 -27.82°S, 58.73°W
打ち上げ日 Jul 10, 2023
運用期間 2.3 years
タイプ internet

技術仕様

分類 Payload
質量 730.00 kg
乾燥質量 700.00 kg
総質量 730.00 kg
長さ 0.30 m
直径 4.10 m
スパン 29.00 m
形状 Box + pan
製造者 SPXS
バスタイプ Starlink V2M
フェーズステータス In Orbit
所有者/国 SPXS/US

大規模コンステレーション

Loading constellations...